Zurück zum Katalog

STARLINK-32102

AktivKommunikationVLEO
NORAD 59699·PAYLOAD·🇺🇸 United States

Gestartet May 8, 2024 von Cape Canaveral Space Force Station

Loading…

Nächste Überflüge (nächste 24 Stunden)

TLE

AktuellSource: CelesTrak SupGP

Epoche: Sep 15, 2026, 02:54 UTC

1 59699C 24086T   26258.12131944 -.00017822  00000+0 -64540-3 0  2587
2 59699  43.0010  69.9552 0001413 269.6035 131.6929 15.27591908    13

Verfolge STARLINK-32102 in Echtzeit mit AllMySat

Download on the App Store